User: anonymous   Login
Location: Ash Observatory
(39.7321°N, 75.2004°W)
Time: 13:55:57
(UTC-04:00)
Language:

Envisat - Orbit

View from above orbital plane
View from above orbital plane
View from above satellite
View from above satellite

Ground track
Ground track

The orbit data is extracted from the following two-line orbital elements,

1 27386U 02009A   19114.07033514 -.00000020  00000-0  69520-5 0  9996
2 27386  98.1540 137.9276 0001401  88.9458 328.1841 14.37946540898205
Epoch (UTC): 24 April 2019 01:41:16
Eccentricity: 0.0001401
inclination: 98.1540°
perigee height: 764 km
apogee height: 766 km
right ascension of ascending node: 137.9276°
argument of perigee: 88.9458°
revolutions per day: 14.37946540
mean anomaly at epoch: 328.1841°
orbit number at epoch: 89820

The dashed part of the orbit path shows where the satellite is in the earth's shadow,  

DLR